X

Important NEWS



New Hub Active

Miami is our new hub! Old members can request transfer via hr@dlxairways.net

Thank you very much and have nice flight.


Deluxe Airways.

X

Tours



Hello again, we created one nice test tour for all pilots to attend. also this is ment to be testing of our tour system

Available Tours

If you find some issues please inform us.

Thank you very much and have nice flight.


Deluxe Airways.

 METAR AND TAF INFORMATION
ArrayMETAR FOR EDFM
15788841 4 EDFM 291150Z 07008KT 030V130 CAVOK 21/02 Q1025 EDFM 2020-05-29T11:50:00Z 49.47 8.52 21.0 2.0 70 8 6.21 30.265747 VFR METAR 100.0 EDFM 291120Z 03006KT 350V070 CAVOK 20/03 Q1025 EDFM 2020-05-29T11:20:00Z 49.47 8.52 20.0 3.0 30 6 6.21 30.265747 VFR METAR 100.0 EDFM 291050Z 08007KT 360V140 CAVOK 21/03 Q1026 EDFM 2020-05-29T10:50:00Z 49.47 8.52 21.0 3.0 80 7 6.21 30.295275 VFR METAR 100.0

 AIRPORT MAP

 RUNWAY INFORMATION
Runway 09 Runway length 3497 ft Runway width 82 ft
Runway elevation 309 ft Runway displaced threshold 19 ft Runway heading 93
Runway 27 Runway length 3497 ft Runway width 82 ft
Runway elevation 306 ft Runway displaced threshold 174 ft Runway heading 273
Runway 09L Runway length 2297 ft Runway width 98 ft
Runway elevation 0 ft Runway displaced threshold 246 ft Runway heading 92
Runway 27R Runway length 2297 ft Runway width 98 ft
Runway elevation 0 ft Runway displaced threshold 82 ft Runway heading 272

 AIRPORT FREQUENCIES
Type APP Name COLEMAN AP Frequency 130.5 MHZ
Type ATIS Name ATIS Frequency 136.55 MHZ
Type CNTR Name LANGEN RAD Frequency 127.5 MHZ
Type INFO Name INFO Frequency 118.4 MHZ
Type TWR Name TWR Frequency 118.4 MHZ
Type TWR Name COLEMAN TW Frequency 122.1 MHZ

 AIRPORT NEAR NAVIGATION AIDS
Type DME Name Mannheim Frequency 113550 KHZ



Powered by Virtual Airlines Manager [v2.6.2]

Template code change by DeluxeAir